Powrót do katalogu

KUIPER-00623

AktywnyŁącznośćLEO
NORAD 69780·PAYLOAD·🇺🇸 United States

Wystrzelony Jul 2, 2026 z Cape Canaveral Space Force Station

Loading…

Następne Przeloty (najbliższe 24 godziny)

TLE

ŚwieżeSource: CelesTrak SupGP

Epoka: Sep 14, 2026, 21:31 UTC

1 69780C 26151T   26257.89655093  .00002236  00000+0  29187-3 0  2571
2 69780  51.8964 256.4864 0001776 100.3097 238.5961 14.80042292    18

Śledź KUIPER-00623 w czasie rzeczywistym z AllMySat

Download on the App Store